Roseburg, OR

9:33 AM PDT on April 28, 2017 (GMT -0700)
Roseburg Regional

Weather History for KRBG - September, 2013

Change the Weather History Date:

Monday, September 23, 2013

  Actual Average Record
Temperature  
Mean Temperature 61 °F 63 °F  
Max Temperature 66 °F 77 °F 100 °F (1943)
Min Temperature 56 °F 50 °F 37 °F (1993)
Degree Days  
Heating Degree Days 4 3  
Month to date heating degree days 23 38  
Since 1 July heating degree days 24 59  
Cooling Degree Days 0 1  
Month to date cooling degree days 121 59  
Year to date cooling degree days 823 470  
Growing Degree Days 10 (Base 50)    
Moisture  
Dew Point 54 °F    
Average Humidity 78    
Maximum Humidity 93    
Minimum Humidity 63    
Precipitation  
Precipitation 0.01 in 0.04 in 0.77 in (1948)
Month to date precipitation 1.60 0.66  
Year to date precipitation 10.14 20.31  
Sea Level Pressure  
Sea Level Pressure 30.01 in    
Wind  
Wind Speed 2 mph (ENE)    
Max Wind Speed 8 mph    
Max Gust Speed 12 mph    
Visibility 10 miles    
Events Rain    
T = Trace of Precipitation, MM = Missing Value Source: NWS Daily Summary

Daily Weather History Graph

Daily Weather History Graph

Search for Another Location

Airport or City:

Trip Planner

Search our weather history database for the weather conditions in past years. The results will help you decide how hot, cold, wet, or windy it might be!

Date:

Astronomy

Sep. 23, 2013 Rise Set
Actual Time 7:02 AM PDT 7:08 PM PDT
Civil Twilight 6:33 AM PDT 7:36 PM PDT
Nautical Twilight 6:00 AM PDT 8:09 PM PDT
Astronomical Twilight 5:26 AM PDT 8:43 PM PDT
Moon 9:36 PM PDT (9/23) 11:34 AM PDT (9/23)
Length of Visible Light 13h 02m
Length of Day
12h 06m
Waning Gibbous, 80% of the Moon is Illuminated
Sep 23
Waning Gibbous
Sep 26
Last Quarter
Oct 4
New
Oct 11
First Quarter
Oct 18
Full

Hourly Weather History & Observations

Time (PDT) Temp. Dew Point Humidity Pressure Visibility Wind Dir Wind Speed Gust Speed Precip Events Conditions
12:53 AM 57.9 °F 55.0 °F 90% 29.95 in 10.0 mi Calm Calm - N/A   Mostly Cloudy
1:53 AM 57.0 °F 54.0 °F 89% 29.96 in 10.0 mi Calm Calm - N/A   Overcast
2:53 AM 57.0 °F 55.0 °F 93% 29.96 in 10.0 mi Calm Calm - N/A   Overcast
3:53 AM 55.9 °F 54.0 °F 93% 29.97 in 10.0 mi Calm Calm - N/A   Overcast
4:53 AM 57.0 °F 55.0 °F 93% 29.97 in 10.0 mi Calm Calm - N/A   Overcast
5:53 AM 57.0 °F 55.0 °F 93% 29.98 in 10.0 mi Calm Calm - N/A   Overcast
6:53 AM 57.0 °F 55.0 °F 93% 29.99 in 10.0 mi Calm Calm - N/A   Overcast
7:53 AM 57.9 °F 55.0 °F 90% 30.00 in 10.0 mi Calm Calm - N/A   Overcast
8:53 AM 59.0 °F 55.0 °F 87% 30.01 in 10.0 mi Calm Calm - N/A   Overcast
9:44 AM 59.0 °F 55.4 °F 88% 30.01 in 10.0 mi NW 4.6 mph - N/A   Overcast
9:53 AM 57.9 °F 54.0 °F 87% 30.02 in 10.0 mi WNW 6.9 mph - N/A   Overcast
10:53 AM 57.9 °F 53.1 °F 84% 30.03 in 10.0 mi WNW 5.8 mph - N/A   Overcast
11:38 AM 57.2 °F 53.6 °F 88% 30.04 in 4.0 mi Calm Calm - 0.00 in Rain Light Rain
11:53 AM 59.0 °F 54.0 °F 83% 30.04 in 8.0 mi Calm Calm - 0.00 in   Overcast
12:53 PM 60.1 °F 55.0 °F 83% 30.04 in 10.0 mi Calm Calm - N/A   Overcast
1:53 PM 61.0 °F 55.9 °F 83% 30.04 in 10.0 mi SSE 5.8 mph - 0.01 in   Overcast
2:53 PM 63.0 °F 54.0 °F 72% 30.04 in 10.0 mi SSE 5.8 mph - N/A   Overcast
3:53 PM 64.0 °F 54.0 °F 70% 30.02 in 10.0 mi SE 3.5 mph - N/A   Overcast
4:53 PM 66.0 °F 54.0 °F 65% 30.01 in 10.0 mi East 3.5 mph - N/A   Overcast
5:02 PM 64.4 °F 53.6 °F 68% 30.01 in 10.0 mi ESE 5.8 mph - N/A   Overcast
5:19 PM 64.4 °F 53.6 °F 68% 30.01 in 10.0 mi East 4.6 mph - N/A   Overcast
5:53 PM 64.9 °F 53.1 °F 65% 30.01 in 10.0 mi NNW 4.6 mph - N/A   Overcast
6:53 PM 63.0 °F 55.9 °F 78% 30.01 in 10.0 mi NNE 4.6 mph - N/A   Overcast
7:53 PM 62.1 °F 55.0 °F 78% 30.01 in 10.0 mi Calm Calm - N/A   Mostly Cloudy
8:53 PM 61.0 °F 54.0 °F 78% 30.03 in 10.0 mi Calm Calm - N/A   Overcast
9:53 PM 60.1 °F 55.0 °F 83% 30.02 in 10.0 mi NNE 3.5 mph - N/A   Mostly Cloudy
10:53 PM 59.0 °F 54.0 °F 83% 30.01 in 10.0 mi Calm Calm - N/A   Scattered Clouds
11:53 PM 59.0 °F 55.0 °F 87% 30.01 in 10.0 mi Calm Calm - N/A   Overcast